Weather reports worldwide

Advertisment
Murcia/Alcantarilla, Spain (8429): temperature & dewpoint: 26.10.2020 02:00:00 - 01.11.2020 02:00:00 (CET)Murcia/Alcantarilla, Spain (8429): wind speed: 26.10.2020 02:00:00 - 01.11.2020 02:00:00 (CET)Murcia/Alcantarilla, Spain (8429): wind direction: 26.10.2020 02:00:00 - 01.11.2020 02:00:00 (CET)Murcia/Alcantarilla, Spain (8429): reduced air pressure: 26.10.2020 02:00:00 - 01.11.2020 02:00:00 (CET)Murcia/Alcantarilla, Spain (8429): visibility: 26.10.2020 02:00:00 - 01.11.2020 02:00:00 (CET)
Date & Time tt [°C] td [°C] ff [km/h] ff [kn] dd ppp [hPa] vv [km]
01.11.2020 02:00:00 - - - - - - -
01.11.2020 01:00:00 - - - - - - -
01.11.2020 00:00:00 - - - - - - -
31.10.2020 23:00:00 - - - - - - -
31.10.2020 22:00:00 - - - - - - -
31.10.2020 21:00:00 - - - - - - -
31.10.2020 20:00:00 - - - - - - -
31.10.2020 19:00:00 19,9 13,1 9 5 SW 1023,5 35
31.10.2020 18:00:00 - - - - - - -
31.10.2020 17:00:00 - - - - - - -
31.10.2020 16:00:00 26,7 8,6 4 2 N 1022,3 30
31.10.2020 15:00:00 - - - - - - -
31.10.2020 14:00:00 - - - - - - -
31.10.2020 13:00:00 22,1 8,6 5 3 NE 1024,7 30
31.10.2020 12:00:00 - - - - - - -
31.10.2020 11:00:00 - - - - - - -
31.10.2020 10:00:00 14,4 7,9 0 0 N 1026,4 20
31.10.2020 09:00:00 - - - - - - -
31.10.2020 08:00:00 - - - - - - -
31.10.2020 07:00:00 8,2 6,2 4 2 SSW 1025,8 25
31.10.2020 06:00:00 - - - - - - -
31.10.2020 05:00:00 - - - - - - -
31.10.2020 04:00:00 - - - - - - -
31.10.2020 03:00:00 - - - - - - -
31.10.2020 02:00:00 - - - - - - -
31.10.2020 01:00:00 - - - - - - -
31.10.2020 00:00:00 - - - - - - -
30.10.2020 23:00:00 - - - - - - -
30.10.2020 22:00:00 - - - - - - -
30.10.2020 21:00:00 - - - - - - -
30.10.2020 20:00:00 - - - - - - -
30.10.2020 19:00:00 21,5 8,1 4 2 N 1024,5 30
30.10.2020 18:00:00 - - - - - - -
30.10.2020 17:00:00 - - - - - - -
30.10.2020 16:00:00 26,2 9,1 9 5 ESE 1024,0 30
30.10.2020 15:00:00 - - - - - - -
30.10.2020 14:00:00 - - - - - - -
30.10.2020 13:00:00 22,6 10,7 2 1 NNE 1026,0 25
30.10.2020 12:00:00 - - - - - - -
30.10.2020 11:00:00 - - - - - - -
30.10.2020 10:00:00 16,2 7,9 2 1 N 1027,6 20
30.10.2020 09:00:00 - - - - - - -
30.10.2020 08:00:00 - - - - - - -
30.10.2020 07:00:00 9,0 7,8 4 2 SW 1026,7 20
30.10.2020 06:00:00 - - - - - - -
30.10.2020 05:00:00 - - - - - - -
30.10.2020 04:00:00 - - - - - - -
30.10.2020 03:00:00 - - - - - - -
30.10.2020 02:00:00 - - - - - - -
30.10.2020 01:00:00 - - - - - - -
30.10.2020 00:00:00 - - - - - - -
29.10.2020 23:00:00 - - - - - - -
29.10.2020 22:00:00 - - - - - - -
29.10.2020 21:00:00 - - - - - - -
29.10.2020 20:00:00 - - - - - - -
29.10.2020 19:00:00 20,5 10,3 9 5 E 1025,5 30
29.10.2020 18:00:00 - - - - - - -
29.10.2020 17:00:00 - - - - - - -
29.10.2020 16:00:00 25,0 9,7 11 6 ESE 1024,4 30
29.10.2020 15:00:00 - - - - - - -
29.10.2020 14:00:00 - - - - - - -
29.10.2020 13:00:00 23,1 9,8 5 3 N 1026,3 30
29.10.2020 12:00:00 - - - - - - -
29.10.2020 11:00:00 - - - - - - -
29.10.2020 10:00:00 17,6 10,0 5 3 ENE 1026,9 30
29.10.2020 09:00:00 - - - - - - -
29.10.2020 08:00:00 - - - - - - -
29.10.2020 07:00:00 13,8 9,6 0 0 N 1026,0 25
29.10.2020 06:00:00 - - - - - - -
29.10.2020 05:00:00 - - - - - - -
29.10.2020 04:00:00 - - - - - - -
29.10.2020 03:00:00 - - - - - - -
29.10.2020 02:00:00 - - - - - - -
29.10.2020 01:00:00 - - - - - - -
29.10.2020 00:00:00 - - - - - - -
28.10.2020 23:00:00 - - - - - - -
28.10.2020 22:00:00 - - - - - - -
28.10.2020 21:00:00 - - - - - - -
28.10.2020 20:00:00 - - - - - - -
28.10.2020 19:00:00 18,7 8,1 11 6 SW 1021,1 50
28.10.2020 18:00:00 - - - - - - -
28.10.2020 17:00:00 - - - - - - -
28.10.2020 16:00:00 25,1 8,1 2 1 N 1020,4 50
28.10.2020 15:00:00 - - - - - - -
28.10.2020 14:00:00 - - - - - - -
28.10.2020 13:00:00 23,3 6,6 5 3 SSW 1021,7 50
28.10.2020 12:00:00 - - - - - - -
28.10.2020 11:00:00 - - - - - - -
28.10.2020 10:00:00 17,7 5,9 8 4 W 1022,7 50
28.10.2020 09:00:00 - - - - - - -
28.10.2020 08:00:00 - - - - - - -
28.10.2020 07:00:00 10,8 5,6 9 5 WSW 1021,4 50
28.10.2020 06:00:00 - - - - - - -
28.10.2020 05:00:00 - - - - - - -
28.10.2020 04:00:00 - - - - - - -
28.10.2020 03:00:00 - - - - - - -
28.10.2020 02:00:00 - - - - - - -
28.10.2020 01:00:00 - - - - - - -
28.10.2020 00:00:00 - - - - - - -
27.10.2020 23:00:00 - - - - - - -
27.10.2020 22:00:00 - - - - - - -
27.10.2020 21:00:00 - - - - - - -
27.10.2020 20:00:00 - - - - - - -
27.10.2020 19:00:00 17,2 8,1 16 9 WSW 1018,4 30
27.10.2020 18:00:00 - - - - - - -
27.10.2020 17:00:00 - - - - - - -
27.10.2020 16:00:00 21,2 1,0 4 2 N 1018,5 30
27.10.2020 15:00:00 - - - - - - -
27.10.2020 14:00:00 - - - - - - -
27.10.2020 13:00:00 20,7 1,6 4 2 SW 1020,4 30
27.10.2020 12:00:00 - - - - - - -
27.10.2020 11:00:00 - - - - - - -
27.10.2020 10:00:00 15,7 3,5 8 4 W 1021,5 30
27.10.2020 09:00:00 - - - - - - -
27.10.2020 08:00:00 - - - - - - -
27.10.2020 07:00:00 10,9 3,5 8 4 SW 1021,0 30
27.10.2020 06:00:00 - - - - - - -
27.10.2020 05:00:00 - - - - - - -
27.10.2020 04:00:00 - - - - - - -
27.10.2020 03:00:00 - - - - - - -
27.10.2020 02:00:00 - - - - - - -
27.10.2020 01:00:00 - - - - - - -
27.10.2020 00:00:00 - - - - - - -
26.10.2020 23:00:00 - - - - - - -
26.10.2020 22:00:00 - - - - - - -
26.10.2020 21:00:00 - - - - - - -
26.10.2020 20:00:00 - - - - - - -
26.10.2020 19:00:00 18,4 1,0 11 6 NW 1018,8 30
26.10.2020 18:00:00 - - - - - - -
26.10.2020 17:00:00 - - - - - - -
26.10.2020 16:00:00 21,1 0,3 15 8 NW 1016,6 30
26.10.2020 15:00:00 - - - - - - -
26.10.2020 14:00:00 - - - - - - -
26.10.2020 13:00:00 19,9 -0,1 15 8 NW 1016,7 30
26.10.2020 12:00:00 - - - - - - -
26.10.2020 11:00:00 - - - - - - -
26.10.2020 10:00:00 17,7 3,6 13 7 NW 1016,9 30
26.10.2020 09:00:00 - - - - - - -
26.10.2020 08:00:00 - - - - - - -
26.10.2020 07:00:00 15,8 11,8 13 7 W 1014,1 20
26.10.2020 06:00:00 - - - - - - -
26.10.2020 05:00:00 - - - - - - -
26.10.2020 04:00:00 - - - - - - -
26.10.2020 03:00:00 - - - - - - -
26.10.2020 02:00:00 - - - - - - -

tt = temperature
td = dewpoint
ff = wind speed
dd = wind direction
ppp = reduced air pressure
vv = visibility

Next stations